,,,PA_Meas_PMT16A,,PR_Meas_QMR101_102,,RH_Meas_QMH101,,SR_Meas_QMS101,,TA_Meas_QMH101,,GenWind,,GenWind,
date,time,status,PA,status,PR,status,RH,status,SR,status,TA,status,DirAvg,status,SpdAvg,
2010-10-03, 00:00:05,VALID,998.571,VALID,0,VALID,92.3871,VALID,0.112286,VALID,22.919,VALID,21,VALID,0.999609,
2010-10-03, 00:01:05,VALID,998.557,VALID,0,VALID,92.3566,VALID,0,VALID,22.8818,VALID,15,VALID,0.8625,
2010-10-03, 00:02:05,VALID,998.535,VALID,0,VALID,92.4557,VALID,0.112286,VALID,22.8605,VALID,357,VALID,0.627344,
2010-10-03, 00:03:05,VALID,998.507,VALID,0,VALID,92.5473,VALID,0,VALID,22.88,VALID,345,VALID,0.452734,
2010-10-03, 00:04:05,VALID,998.504,VALID,0,VALID,92.5626,VALID,0.112286,VALID,22.88,VALID,345,VALID,0.215625,
2010-10-03, 00:05:05,VALID,998.485,VALID,0,VALID,92.5549,VALID,0,VALID,22.8215,VALID,345,VALID,0.0914062,
2010-10-03, 00:06:05,VALID,998.436,VALID,0,VALID,92.5549,VALID,0,VALID,22.802,VALID,345,VALID,0.237109,
2010-10-03, 00:07:05,VALID,998.392,VALID,0,VALID,92.6083,VALID,0,VALID,22.8215,VALID,345,VALID,0.244922,
2010-10-03, 00:08:05,VALID,998.427,VALID,0,VALID,92.677,VALID,0,VALID,22.8427,VALID,345,VALID,0.135156,
2010-10-03, 00:09:05,VALID,998.428,VALID,0,VALID,92.738,VALID,0,VALID,22.8232,VALID,345,VALID,0.108594,
2010-10-03, 00:10:05,VALID,998.445,VALID,0,VALID,92.7991,VALID,0,VALID,22.8427,VALID,345,VALID,0,
2010-10-03, 00:11:05,VALID,998.436,VALID,0,VALID,92.8677,VALID,0,VALID,22.8427,VALID,345,VALID,0,
2010-10-03, 00:12:05,VALID,998.399,VALID,0,VALID,92.9059,VALID,0,VALID,22.9013,VALID,345,VALID,0,
2010-10-03, 00:13:05,VALID,998.323,VALID,0,VALID,92.9517,VALID,0,VALID,22.8818,VALID,345,VALID,0,
2010-10-03, 00:14:05,VALID,998.333,VALID,0,VALID,92.9745,VALID,0,VALID,22.9208,VALID,345,VALID,0.213281,
2010-10-03, 00:15:05,VALID,998.324,VALID,0,VALID,92.9593,VALID,0,VALID,22.8818,VALID,345,VALID,0.0140625,
2010-10-03, 00:16:05,VALID,998.326,VALID,0,VALID,92.9974,VALID,0,VALID,22.8623,VALID,349,VALID,0.715234,
2010-10-03, 00:17:05,VALID,998.308,VALID,0,VALID,93.0585,VALID,0,VALID,22.9208,VALID,42,VALID,0.308984,
2010-10-03, 00:18:05,VALID,998.29,VALID,0,VALID,93.0737,VALID,0,VALID,22.9598,VALID,42,VALID,0.296484,
2010-10-03, 00:19:05,VALID,998.297,VALID,0,VALID,93.0966,VALID,0,VALID,22.9598,VALID,42,VALID,0.591016,
2010-10-03, 00:20:05,VALID,998.29,VALID,0,VALID,93.0814,VALID,0,VALID,22.9403,VALID,78,VALID,0.783594,
2010-10-03, 00:21:05,VALID,998.302,VALID,0,VALID,93.0661,VALID,0,VALID,22.9208,VALID,78,VALID,0.217187,
2010-10-03, 00:22:05,VALID,998.286,VALID,0,VALID,92.9745,VALID,0,VALID,22.8623,VALID,78,VALID,0.296484,
2010-10-03, 00:23:05,VALID,998.31,VALID,0,VALID,92.8754,VALID,0,VALID,22.8037,VALID,78,VALID,0.716016,
2010-10-03, 00:24:05,VALID,998.252,VALID,0,VALID,92.9135,VALID,0,VALID,22.8818,VALID,78,VALID,0.661328,
2010-10-03, 00:25:05,VALID,998.258,VALID,0,VALID,92.9059,VALID,0,VALID,22.942,VALID,78,VALID,0.142969,
2010-10-03, 00:26:05,VALID,998.292,VALID,0,VALID,92.883,VALID,0,VALID,22.8818,VALID,78,VALID,0.693359,
2010-10-03, 00:27:05,VALID,998.305,VALID,0,VALID,92.883,VALID,0,VALID,22.9208,VALID,78,VALID,0.839063,
2010-10-03, 00:28:05,VALID,998.294,VALID,0,VALID,92.8983,VALID,0,VALID,22.9598,VALID,78,VALID,0.479688,
2010-10-03, 00:29:05,VALID,998.297,VALID,0,VALID,92.8677,VALID,0,VALID,22.9793,VALID,78,VALID,0.716016,
2010-10-03, 00:30:05,VALID,998.29,VALID,0,VALID,92.8372,VALID,0,VALID,22.9988,VALID,78,VALID,0.482812,
2010-10-03, 00:31:05,VALID,998.256,VALID,0,VALID,92.7685,VALID,0,VALID,22.9988,VALID,78,VALID,0.428906,
2010-10-03, 00:32:05,VALID,998.235,VALID,0,VALID,92.677,VALID,0,VALID,22.9793,VALID,78,VALID,0.542188,
2010-10-03, 00:33:05,VALID,998.235,VALID,0,VALID,92.5778,VALID,0,VALID,22.9598,VALID,78,VALID,0.141797,
2010-10-03, 00:34:05,VALID,998.186,VALID,0,VALID,92.4481,VALID,0,VALID,22.9208,VALID,78,VALID,0,
2010-10-03, 00:35:05,VALID,998.197,VALID,0,VALID,92.3718,VALID,0,VALID,22.9208,VALID,78,VALID,0.719531,
2010-10-03, 00:36:05,VALID,998.193,VALID,0,VALID,92.4557,VALID,0,VALID,22.9793,VALID,78,VALID,0.389062,
2010-10-03, 00:37:05,VALID,998.206,VALID,0,VALID,92.3718,VALID,0,VALID,22.9403,VALID,78,VALID,0.361328,
2010-10-03, 00:38:05,VALID,998.21,VALID,0,VALID,92.2879,VALID,0,VALID,22.942,VALID,78,VALID,0.452734,
2010-10-03, 00:39:05,VALID,998.218,VALID,0,VALID,92.2574,VALID,0,VALID,22.9208,VALID,78,VALID,0.530078,
2010-10-03, 00:40:05,VALID,998.206,VALID,0,VALID,92.204,VALID,0,VALID,22.9208,VALID,17,VALID,0.758203,
2010-10-03, 00:41:05,VALID,998.191,VALID,0,VALID,92.2192,VALID,0,VALID,22.9208,VALID,17,VALID,0.816797,
2010-10-03, 00:42:05,VALID,998.165,VALID,0,VALID,92.1811,VALID,0,VALID,22.9013,VALID,17,VALID,0.922656,
2010-10-03, 00:43:05,VALID,998.179,VALID,0,VALID,92.1353,VALID,0,VALID,22.9013,VALID,17,VALID,1.10547,
2010-10-03, 00:44:05,VALID,998.181,VALID,0,VALID,92.0743,VALID,0,VALID,22.8818,VALID,17,VALID,0.703516,
2010-10-03, 00:45:05,VALID,998.156,VALID,0,VALID,92.0209,VALID,0,VALID,22.8232,VALID,17,VALID,0.8,
2010-10-03, 00:46:05,VALID,998.141,VALID,0,VALID,92.059,VALID,0,VALID,22.8232,VALID,17,VALID,0.89375,
2010-10-03, 00:47:05,VALID,998.111,VALID,0,VALID,92.204,VALID,0,VALID,22.8232,VALID,17,VALID,0.767578,
2010-10-03, 00:48:05,VALID,998.102,VALID,0,VALID,92.3642,VALID,0,VALID,22.8427,VALID,24,VALID,1.1168,
2010-10-03, 00:49:05,VALID,998.063,VALID,0,VALID,92.5168,VALID,0,VALID,22.8818,VALID,25,VALID,0.778125,
2010-10-03, 00:50:05,VALID,998.009,VALID,0,VALID,92.5854,VALID,0,VALID,22.8818,VALID,25,VALID,0.594531,
2010-10-03, 00:51:05,VALID,998.009,VALID,0,VALID,92.6388,VALID,0,VALID,22.8623,VALID,25,VALID,0.476563,
2010-10-03, 00:52:05,VALID,997.978,VALID,0,VALID,92.6236,VALID,0,VALID,22.8427,VALID,25,VALID,0.173047,
2010-10-03, 00:53:05,VALID,998.022,VALID,0,VALID,92.6083,VALID,0,VALID,22.8232,VALID,25,VALID,0.224219,
2010-10-03, 00:54:05,VALID,998.03,VALID,0,VALID,92.6541,VALID,0,VALID,22.8427,VALID,25,VALID,0.313672,
2010-10-03, 00:55:05,VALID,998.002,VALID,0,VALID,92.7151,VALID,0,VALID,22.8623,VALID,25,VALID,0.0570313,
2010-10-03, 00:56:05,VALID,997.977,VALID,0,VALID,92.7685,VALID,0,VALID,22.8427,VALID,25,VALID,0.0878906,
2010-10-03, 00:57:05,VALID,997.997,VALID,0,VALID,92.7685,VALID,0,VALID,22.8232,VALID,109,VALID,0.714453,
2010-10-03, 00:58:05,VALID,997.992,VALID,0,VALID,92.7457,VALID,0,VALID,22.8037,VALID,135,VALID,0.641406,
2010-10-03, 00:59:05,VALID,997.988,VALID,0,VALID,92.7685,VALID,0,VALID,22.8037,VALID,135,VALID,0.420312,
2010-10-03, 01:00:05,VALID,997.99,VALID,0,VALID,92.7075,VALID,0,VALID,22.7842,VALID,135,VALID,0.441016,
2010-10-03, 01:01:05,VALID,997.956,VALID,0,VALID,92.7838,VALID,0,VALID,22.8623,VALID,119,VALID,0.778906,
2010-10-03, 01:02:05,VALID,997.941,VALID,0,VALID,92.8372,VALID,0,VALID,22.9615,VALID,119,VALID,0.510547,
2010-10-03, 01:03:05,VALID,997.918,VALID,0,VALID,92.7762,VALID,0,VALID,22.9598,VALID,119,VALID,0.434766,
2010-10-03, 01:04:05,VALID,997.941,VALID,0,VALID,92.6465,VALID,0,VALID,22.9581,VALID,119,VALID,0.4625,
2010-10-03, 01:05:05,VALID,997.92,VALID,0,VALID,92.4634,VALID,0,VALID,22.919,VALID,83,VALID,0.730078,
2010-10-03, 01:06:05,VALID,997.896,VALID,0,VALID,92.4405,VALID,0,VALID,22.9988,VALID,83,VALID,0.663672,
2010-10-03, 01:07:05,VALID,997.907,VALID,0,VALID,92.3794,VALID,0,VALID,23.0166,VALID,83,VALID,0.68125,
2010-10-03, 01:08:05,VALID,997.905,VALID,0,VALID,92.2726,VALID,0,VALID,23.0183,VALID,83,VALID,0.470703,
2010-10-03, 01:09:05,VALID,997.848,VALID,0,VALID,92.0895,VALID,0,VALID,23.0201,VALID,83,VALID,0.7625,
2010-10-03, 01:10:05,VALID,997.803,VALID,0,VALID,91.9827,VALID,0,VALID,22.9988,VALID,83,VALID,0.664844,
2010-10-03, 01:11:05,VALID,997.809,VALID,0,VALID,91.792,VALID,0,VALID,22.9811,VALID,80,VALID,0.669141,
2010-10-03, 01:12:05,VALID,997.784,VALID,0,VALID,91.6317,VALID,0,VALID,22.9615,VALID,69,VALID,0.83125,
2010-10-03, 01:13:05,VALID,997.772,VALID,0,VALID,91.7767,VALID,0,VALID,22.9598,VALID,69,VALID,0.48125,
2010-10-03, 01:14:05,VALID,997.771,VALID,0,VALID,91.7996,VALID,0,VALID,22.9615,VALID,69,VALID,0.677734,
2010-10-03, 01:15:05,VALID,997.727,VALID,0,VALID,91.8377,VALID,0,VALID,22.9615,VALID,54,VALID,0.803516,
2010-10-03, 01:16:05,VALID,997.723,VALID,0,VALID,91.7767,VALID,0,VALID,22.9013,VALID,54,VALID,0.199609,
2010-10-03, 01:17:05,VALID,997.76,VALID,0,VALID,91.792,VALID,0,VALID,22.8623,VALID,54,VALID,0.424219,
2010-10-03, 01:18:05,VALID,997.746,VALID,0,VALID,91.9293,VALID,0,VALID,22.8818,VALID,54,VALID,0.26875,
2010-10-03, 01:19:05,VALID,997.799,VALID,0,VALID,92.0056,VALID,0,VALID,22.8427,VALID,54,VALID,0.0964844,
2010-10-03, 01:20:05,VALID,997.8,VALID,0,VALID,91.998,VALID,0,VALID,22.8037,VALID,54,VALID,0,
2010-10-03, 01:21:05,VALID,997.837,VALID,0,VALID,92.0209,VALID,0,VALID,22.7842,VALID,54,VALID,0,
2010-10-03, 01:22:05,VALID,997.835,VALID,0,VALID,92.0895,VALID,0,VALID,22.7647,VALID,54,VALID,0,
2010-10-03, 01:23:05,VALID,997.823,VALID,0,VALID,92.1353,VALID,0,VALID,22.763,VALID,54,VALID,0,
2010-10-03, 01:24:05,VALID,997.82,VALID,0,VALID,92.204,VALID,0,VALID,22.7435,VALID,54,VALID,0.0332031,
2010-10-03, 01:25:05,VALID,997.865,VALID,0,VALID,92.2803,VALID,0,VALID,22.7435,VALID,54,VALID,0.401563,
2010-10-03, 01:26:05,VALID,997.837,VALID,0,VALID,92.3413,VALID,0.112286,VALID,22.724,VALID,54,VALID,0.3125,
2010-10-03, 01:27:05,VALID,997.838,VALID,0,VALID,92.41,VALID,0,VALID,22.7435,VALID,54,VALID,0.344141,
2010-10-03, 01:28:05,VALID,997.855,VALID,0,VALID,92.4634,VALID,0,VALID,22.7435,VALID,54,VALID,0.248437,
2010-10-03, 01:29:05,VALID,997.845,VALID,0,VALID,92.5015,VALID,0,VALID,22.7435,VALID,54,VALID,0.1875,
2010-10-03, 01:30:05,VALID,997.846,VALID,0,VALID,92.5168,VALID,0,VALID,22.7435,VALID,54,VALID,0.612891,
2010-10-03, 01:31:05,VALID,997.79,VALID,0,VALID,92.4786,VALID,0,VALID,22.724,VALID,54,VALID,0.565234,
2010-10-03, 01:32:05,VALID,997.761,VALID,0,VALID,92.4252,VALID,0,VALID,22.724,VALID,54,VALID,0.0589844,
2010-10-03, 01:33:05,VALID,997.714,VALID,0,VALID,92.41,VALID,0,VALID,22.7257,VALID,54,VALID,0.0976563,
2010-10-03, 01:34:05,VALID,997.747,VALID,0,VALID,92.3947,VALID,0.112286,VALID,22.724,VALID,54,VALID,0.00351562,
2010-10-03, 01:35:05,VALID,997.756,VALID,0,VALID,92.41,VALID,0,VALID,22.7062,VALID,83,VALID,0.775781,
2010-10-03, 01:36:05,VALID,997.753,VALID,0,VALID,92.471,VALID,0,VALID,22.724,VALID,111,VALID,0.780859,
2010-10-03, 01:37:05,VALID,997.745,VALID,0,VALID,92.5091,VALID,0,VALID,22.7452,VALID,127,VALID,0.137109,
2010-10-03, 01:38:05,VALID,997.735,VALID,0,VALID,92.5091,VALID,0,VALID,22.7257,VALID,127,VALID,0,
2010-10-03, 01:39:05,VALID,997.763,VALID,0,VALID,92.4557,VALID,0,VALID,22.7062,VALID,127,VALID,0.289063,
2010-10-03, 01:40:05,VALID,997.785,VALID,0,VALID,92.4557,VALID,0,VALID,22.6867,VALID,102,VALID,0.815625,
2010-10-03, 01:41:05,VALID,997.745,VALID,0,VALID,92.5091,VALID,0,VALID,22.7062,VALID,102,VALID,0.307031,
2010-10-03, 01:42:05,VALID,997.715,VALID,0,VALID,92.532,VALID,0,VALID,22.7062,VALID,102,VALID,0.0246094,
2010-10-03, 01:43:05,VALID,997.716,VALID,0,VALID,92.5091,VALID,0,VALID,22.6867,VALID,102,VALID,0.00195313,
2010-10-03, 01:44:05,VALID,997.704,VALID,0,VALID,92.471,VALID,0,VALID,22.6672,VALID,87,VALID,0.576172,
2010-10-03, 01:45:04,VALID,997.708,VALID,0,VALID,92.4405,VALID,0,VALID,22.6282,VALID,41,VALID,0.760938,
2010-10-03, 01:46:04,VALID,997.683,VALID,0,VALID,92.3337,VALID,0,VALID,22.5892,VALID,20,VALID,0.683594,
2010-10-03, 01:47:04,VALID,997.686,VALID,0,VALID,92.2879,VALID,0,VALID,22.5696,VALID,20,VALID,0.224609,
2010-10-03, 01:48:04,VALID,997.664,VALID,0,VALID,92.2803,VALID,0,VALID,22.5696,VALID,20,VALID,0.242969,
2010-10-03, 01:49:04,VALID,997.664,VALID,0,VALID,92.2955,VALID,0,VALID,22.5501,VALID,20,VALID,0.305469,
2010-10-03, 01:50:04,VALID,997.685,VALID,0,VALID,92.2955,VALID,0,VALID,22.5306,VALID,20,VALID,0.549219,
2010-10-03, 01:51:04,VALID,997.696,VALID,0,VALID,92.2955,VALID,0,VALID,22.5111,VALID,20,VALID,0,
2010-10-03, 01:52:04,VALID,997.715,VALID,0,VALID,92.3566,VALID,0,VALID,22.5306,VALID,20,VALID,0.254687,
2010-10-03, 01:53:04,VALID,997.716,VALID,0,VALID,92.5015,VALID,0,VALID,22.5892,VALID,20,VALID,0.316797,
2010-10-03, 01:54:04,VALID,997.729,VALID,0,VALID,92.6312,VALID,0,VALID,22.6477,VALID,140,VALID,0.717969,
2010-10-03, 01:55:04,VALID,997.671,VALID,0,VALID,92.7228,VALID,0,VALID,22.7062,VALID,140,VALID,0.692187,
2010-10-03, 01:56:04,VALID,997.709,VALID,0,VALID,92.7609,VALID,0,VALID,22.7664,VALID,140,VALID,0.461719,
2010-10-03, 01:57:04,VALID,997.696,VALID,0,VALID,92.7838,VALID,0,VALID,22.7647,VALID,140,VALID,0.152344,
2010-10-03, 01:58:04,VALID,997.744,VALID,0,VALID,92.6923,VALID,0,VALID,22.7452,VALID,140,VALID,0.168359,
2010-10-03, 01:59:04,VALID,997.732,VALID,0,VALID,92.5549,VALID,0,VALID,22.7257,VALID,139,VALID,0.805859,
2010-10-03, 02:00:04,VALID,997.733,VALID,0,VALID,92.4328,VALID,0,VALID,22.7062,VALID,132,VALID,1.42344,
2010-10-03, 02:01:04,VALID,997.739,VALID,0,VALID,92.2574,VALID,0,VALID,22.7062,VALID,132,VALID,1.18828,
2010-10-03, 02:02:04,VALID,997.684,VALID,0,VALID,92.2345,VALID,0,VALID,22.7647,VALID,132,VALID,0.807031,
2010-10-03, 02:03:04,VALID,997.709,VALID,0,VALID,92.2879,VALID,0,VALID,22.8427,VALID,132,VALID,0.337109,
2010-10-03, 02:04:04,VALID,997.707,VALID,0,VALID,92.2955,VALID,0,VALID,22.8623,VALID,132,VALID,0.0675781,
2010-10-03, 02:05:04,VALID,997.716,VALID,0,VALID,92.2879,VALID,0,VALID,22.8818,VALID,132,VALID,0.338281,
2010-10-03, 02:06:04,VALID,997.71,VALID,0,VALID,92.1734,VALID,0,VALID,22.8427,VALID,119,VALID,0.951172,
2010-10-03, 02:07:04,VALID,997.753,VALID,0,VALID,92.0285,VALID,0,VALID,22.8818,VALID,108,VALID,0.85,
2010-10-03, 02:08:04,VALID,997.73,VALID,0,VALID,91.8377,VALID,0,VALID,22.8818,VALID,117,VALID,0.351563,
2010-10-03, 02:09:04,VALID,997.735,VALID,0,VALID,91.4791,VALID,0,VALID,22.8427,VALID,117,VALID,0.285156,
2010-10-03, 02:10:04,VALID,997.768,VALID,0,VALID,91.1129,VALID,0,VALID,22.7842,VALID,117,VALID,0.292969,
2010-10-03, 02:11:04,VALID,997.777,VALID,0,VALID,91.0977,VALID,0,VALID,22.7647,VALID,117,VALID,0.0125,
2010-10-03, 02:12:04,VALID,997.775,VALID,0,VALID,91.38,VALID,0,VALID,22.7842,VALID,117,VALID,0.308203,
2010-10-03, 02:13:04,VALID,997.754,VALID,0,VALID,91.5554,VALID,0,VALID,22.7842,VALID,117,VALID,0.155859,
2010-10-03, 02:14:04,VALID,997.728,VALID,0,VALID,91.6775,VALID,0,VALID,22.8055,VALID,117,VALID,0.251563,
2010-10-03, 02:15:04,VALID,997.72,VALID,0,VALID,91.7767,VALID,0,VALID,22.7647,VALID,117,VALID,0.0117188,
2010-10-03, 02:16:04,VALID,997.706,VALID,0,VALID,91.792,VALID,0,VALID,22.7452,VALID,117,VALID,0,
2010-10-03, 02:17:04,VALID,997.695,VALID,0,VALID,91.853,VALID,0,VALID,22.7257,VALID,117,VALID,0.0699219,
2010-10-03, 02:18:04,VALID,997.721,VALID,0,VALID,91.9064,VALID,0,VALID,22.7062,VALID,117,VALID,0,
2010-10-03, 02:19:04,VALID,997.729,VALID,0,VALID,91.9293,VALID,0,VALID,22.6867,VALID,117,VALID,0.0226563,
2010-10-03, 02:20:04,VALID,997.705,VALID,0,VALID,91.998,VALID,0,VALID,22.6477,VALID,117,VALID,0.225,
2010-10-03, 02:21:04,VALID,997.708,VALID,0,VALID,92.0437,VALID,0,VALID,22.6477,VALID,117,VALID,0.142969,
2010-10-03, 02:22:04,VALID,997.689,VALID,0,VALID,92.1582,VALID,0,VALID,22.6477,VALID,117,VALID,0.416406,
2010-10-03, 02:23:04,VALID,997.657,VALID,0,VALID,92.265,VALID,0,VALID,22.6672,VALID,117,VALID,0.539063,
2010-10-03, 02:24:04,VALID,997.635,VALID,0,VALID,92.3337,VALID,0,VALID,22.6867,VALID,117,VALID,0.323828,
2010-10-03, 02:25:04,VALID,997.643,VALID,0,VALID,92.4252,VALID,0,VALID,22.6867,VALID,117,VALID,0.358203,
2010-10-03, 02:26:04,VALID,997.632,VALID,0,VALID,92.4786,VALID,0,VALID,22.6867,VALID,117,VALID,0.56875,
2010-10-03, 02:27:04,VALID,997.576,VALID,0,VALID,92.4786,VALID,0,VALID,22.6867,VALID,117,VALID,0.43125,
2010-10-03, 02:28:04,VALID,997.596,VALID,0,VALID,92.4481,VALID,0,VALID,22.6672,VALID,12,VALID,0.848828,
2010-10-03, 02:29:04,VALID,997.562,VALID,0,VALID,92.2955,VALID,0,VALID,22.5892,VALID,7,VALID,0.910547,
2010-10-03, 02:30:04,VALID,997.564,VALID,0,VALID,92.2803,VALID,0,VALID,22.5892,VALID,7,VALID,0.748828,
2010-10-03, 02:31:04,VALID,997.576,VALID,0,VALID,92.1734,VALID,0,VALID,22.5306,VALID,7,VALID,0.703906,
2010-10-03, 02:32:04,VALID,997.549,VALID,0,VALID,92.2726,VALID,0,VALID,22.5501,VALID,7,VALID,0.619141,
2010-10-03, 02:33:04,VALID,997.55,VALID,0,VALID,92.2421,VALID,0,VALID,22.5111,VALID,7,VALID,0.521484,
2010-10-03, 02:34:04,VALID,997.557,VALID,0,VALID,92.2345,VALID,0,VALID,22.4721,VALID,7,VALID,0.615625,
2010-10-03, 02:35:04,VALID,997.571,VALID,0,VALID,92.4176,VALID,0,VALID,22.5111,VALID,7,VALID,0.596484,
2010-10-03, 02:36:04,VALID,997.537,VALID,0,VALID,92.4557,VALID,0,VALID,22.4721,VALID,7,VALID,0.283594,
2010-10-03, 02:37:04,VALID,997.577,VALID,0,VALID,92.3871,VALID,0,VALID,22.3534,VALID,7,VALID,0.19375,
2010-10-03, 02:38:04,VALID,997.599,VALID,0,VALID,92.4176,VALID,0,VALID,22.3551,VALID,7,VALID,0.362109,
2010-10-03, 02:39:04,VALID,997.546,VALID,0,VALID,92.471,VALID,0,VALID,22.3551,VALID,7,VALID,0.558984,
2010-10-03, 02:40:04,VALID,997.55,VALID,0,VALID,92.532,VALID,0,VALID,22.3356,VALID,7,VALID,0.535156,
2010-10-03, 02:41:04,VALID,997.555,VALID,0,VALID,92.6465,VALID,0,VALID,22.3373,VALID,7,VALID,0.3,
2010-10-03, 02:42:04,VALID,997.557,VALID,0,VALID,92.6846,VALID,0,VALID,22.3161,VALID,7,VALID,0.0894531,
2010-10-03, 02:43:04,VALID,997.542,VALID,0,VALID,92.7304,VALID,0,VALID,22.2771,VALID,7,VALID,0.496875,
2010-10-03, 02:44:04,VALID,997.529,VALID,0,VALID,92.7228,VALID,0,VALID,22.2576,VALID,7,VALID,0.529297,
2010-10-03, 02:45:04,VALID,997.514,VALID,0,VALID,92.7228,VALID,0,VALID,22.1795,VALID,7,VALID,0.327734,
2010-10-03, 02:46:04,VALID,997.543,VALID,0,VALID,92.7075,VALID,0,VALID,22.16,VALID,7,VALID,0.432031,
2010-10-03, 02:47:04,VALID,997.552,VALID,0,VALID,92.7533,VALID,0,VALID,22.1405,VALID,7,VALID,0.399609,
2010-10-03, 02:48:04,VALID,997.568,VALID,0,VALID,92.8067,VALID,0,VALID,22.1405,VALID,7,VALID,0.2625,
2010-10-03, 02:49:04,VALID,997.559,VALID,0,VALID,92.9211,VALID,0,VALID,22.16,VALID,81,VALID,0.75625,
2010-10-03, 02:50:04,VALID,997.526,VALID,0,VALID,93.0356,VALID,0,VALID,22.2592,VALID,86,VALID,0.650781,
2010-10-03, 02:51:04,VALID,997.525,VALID,0,VALID,93.089,VALID,0,VALID,22.2381,VALID,86,VALID,0.558203,
2010-10-03, 02:52:04,VALID,997.545,VALID,0,VALID,93.15,VALID,0,VALID,22.2771,VALID,86,VALID,0.664844,
2010-10-03, 02:53:04,VALID,997.534,VALID,0,VALID,93.2111,VALID,0,VALID,22.2966,VALID,86,VALID,0.456641,
2010-10-03, 02:54:04,VALID,997.54,VALID,0,VALID,93.2416,VALID,0,VALID,22.3568,VALID,86,VALID,0.369922,
2010-10-03, 02:55:04,VALID,997.523,VALID,0,VALID,93.2797,VALID,0,VALID,22.3551,VALID,86,VALID,0.325,
2010-10-03, 02:56:04,VALID,997.493,VALID,0,VALID,93.2874,VALID,0,VALID,22.3551,VALID,86,VALID,0.126172,
2010-10-03, 02:57:04,VALID,997.482,VALID,0,VALID,93.3103,VALID,0,VALID,22.3763,VALID,86,VALID,0,
2010-10-03, 02:58:04,VALID,997.458,VALID,0,VALID,93.3255,VALID,0,VALID,22.3356,VALID,86,VALID,0.185547,
2010-10-03, 02:59:04,VALID,997.45,VALID,0,VALID,93.3179,VALID,0,VALID,22.3356,VALID,86,VALID,0.0429688,
2010-10-03, 03:00:04,VALID,997.449,VALID,0,VALID,93.3484,VALID,0,VALID,22.3941,VALID,86,VALID,0,
2010-10-03, 03:01:04,VALID,997.426,VALID,0,VALID,93.3408,VALID,0,VALID,22.3941,VALID,86,VALID,0,
2010-10-03, 03:02:04,VALID,997.409,VALID,0,VALID,93.3866,VALID,0,VALID,22.3941,VALID,86,VALID,0,
2010-10-03, 03:03:04,VALID,997.421,VALID,0,VALID,93.4018,VALID,0,VALID,22.4136,VALID,86,VALID,0.333984,
2010-10-03, 03:04:04,VALID,997.425,VALID,0,VALID,93.3789,VALID,0,VALID,22.4331,VALID,86,VALID,0.160156,
2010-10-03, 03:05:04,VALID,997.429,VALID,0,VALID,93.4018,VALID,0,VALID,22.3941,VALID,86,VALID,0.196484,
2010-10-03, 03:06:04,VALID,997.388,VALID,0,VALID,93.4018,VALID,0,VALID,22.3941,VALID,86,VALID,0.555859,
2010-10-03, 03:07:04,VALID,997.349,VALID,0,VALID,93.3942,VALID,0,VALID,22.3746,VALID,86,VALID,0.466016,
2010-10-03, 03:08:04,VALID,997.348,VALID,0,VALID,93.4171,VALID,0,VALID,22.3551,VALID,86,VALID,0.430469,
2010-10-03, 03:09:04,VALID,997.332,VALID,0,VALID,93.3942,VALID,0,VALID,22.3551,VALID,86,VALID,0.273438,
2010-10-03, 03:10:04,VALID,997.341,VALID,0,VALID,93.3942,VALID,0,VALID,22.3568,VALID,86,VALID,0.417188,
2010-10-03, 03:11:04,VALID,997.379,VALID,0,VALID,93.3789,VALID,0,VALID,22.2771,VALID,86,VALID,0.0359375,
2010-10-03, 03:12:04,VALID,997.37,VALID,0,VALID,93.3484,VALID,0,VALID,22.2381,VALID,86,VALID,0,
2010-10-03, 03:13:04,VALID,997.36,VALID,0,VALID,93.3331,VALID,0,VALID,22.199,VALID,86,VALID,0.209766,
2010-10-03, 03:14:04,VALID,997.37,VALID,0,VALID,93.3484,VALID,0,VALID,22.2202,VALID,86,VALID,0.282422,
2010-10-03, 03:15:04,VALID,997.349,VALID,0,VALID,93.3331,VALID,0,VALID,22.1795,VALID,86,VALID,0.386719,
2010-10-03, 03:16:04,VALID,997.351,VALID,0,VALID,93.3637,VALID,0,VALID,22.199,VALID,86,VALID,0.298828,
2010-10-03, 03:17:04,VALID,997.353,VALID,0,VALID,93.3713,VALID,0,VALID,22.1795,VALID,86,VALID,0.343359,
2010-10-03, 03:18:04,VALID,997.361,VALID,0,VALID,93.4018,VALID,0,VALID,22.2381,VALID,86,VALID,0.398438,
2010-10-03, 03:19:04,VALID,997.379,VALID,0,VALID,93.4552,VALID,0,VALID,22.2983,VALID,86,VALID,0.498437,
2010-10-03, 03:20:04,VALID,997.408,VALID,0,VALID,93.44,VALID,0,VALID,22.3161,VALID,86,VALID,0.419531,
2010-10-03, 03:21:04,VALID,997.398,VALID,0,VALID,93.4552,VALID,0,VALID,22.2381,VALID,86,VALID,0.494922,
2010-10-03, 03:22:04,VALID,997.415,VALID,0,VALID,93.4552,VALID,0,VALID,22.2381,VALID,339,VALID,0.646484,
2010-10-03, 03:23:04,VALID,997.393,VALID,0,VALID,93.4552,VALID,0,VALID,22.2169,VALID,339,VALID,0.198828,
2010-10-03, 03:24:04,VALID,997.417,VALID,0,VALID,93.4705,VALID,0.112286,VALID,22.2186,VALID,339,VALID,0.791016,
2010-10-03, 03:25:04,VALID,997.423,VALID,0,VALID,93.4705,VALID,0,VALID,22.1584,VALID,339,VALID,0.551562,
2010-10-03, 03:26:04,VALID,997.422,VALID,0,VALID,93.4628,VALID,0,VALID,22.1405,VALID,339,VALID,0.621875,
2010-10-03, 03:27:04,VALID,997.383,VALID,0,VALID,93.4781,VALID,0,VALID,22.121,VALID,339,VALID,0.603125,
2010-10-03, 03:28:04,VALID,997.402,VALID,0,VALID,93.4934,VALID,0,VALID,22.1194,VALID,339,VALID,0.230469,
2010-10-03, 03:29:04,VALID,997.418,VALID,0,VALID,93.4934,VALID,0,VALID,22.0998,VALID,339,VALID,0.263281,
2010-10-03, 03:30:04,VALID,997.441,VALID,0,VALID,93.4934,VALID,0.112286,VALID,22.121,VALID,339,VALID,0.358594,
2010-10-03, 03:31:04,VALID,997.465,VALID,0,VALID,93.4934,VALID,0,VALID,22.121,VALID,339,VALID,0,
2010-10-03, 03:32:04,VALID,997.458,VALID,0,VALID,93.4934,VALID,0,VALID,22.1015,VALID,339,VALID,0,
2010-10-03, 03:33:04,VALID,997.459,VALID,0,VALID,93.4781,VALID,0,VALID,22.043,VALID,339,VALID,0.228906,
2010-10-03, 03:34:04,VALID,997.509,VALID,0,VALID,93.4781,VALID,0,VALID,21.9828,VALID,339,VALID,0.273828,
2010-10-03, 03:35:04,VALID,997.482,VALID,0,VALID,93.4934,VALID,0,VALID,22.0023,VALID,339,VALID,0.306641,
2010-10-03, 03:36:04,VALID,997.519,VALID,0,VALID,93.5468,VALID,0.112286,VALID,22.0608,VALID,339,VALID,0.365234,
2010-10-03, 03:37:04,VALID,997.536,VALID,0,VALID,93.5468,VALID,0,VALID,22.0608,VALID,339,VALID,0.516406,
2010-10-03, 03:38:04,VALID,997.568,VALID,0,VALID,93.5544,VALID,0,VALID,22.0837,VALID,339,VALID,0.566797,
2010-10-03, 03:39:04,VALID,997.539,VALID,0,VALID,93.5468,VALID,0,VALID,22.0447,VALID,339,VALID,0.504687,
2010-10-03, 03:40:04,VALID,997.549,VALID,0,VALID,93.5697,VALID,0,VALID,22.0252,VALID,339,VALID,0.321094,
2010-10-03, 03:41:04,VALID,997.544,VALID,0,VALID,93.5697,VALID,0,VALID,22.0235,VALID,339,VALID,0.290234,
2010-10-03, 03:42:04,VALID,997.57,VALID,0,VALID,93.6002,VALID,0,VALID,22.1227,VALID,339,VALID,0.236719,
2010-10-03, 03:43:04,VALID,997.549,VALID,0,VALID,93.6383,VALID,0,VALID,22.1812,VALID,339,VALID,0.316016,
2010-10-03, 03:44:04,VALID,997.523,VALID,0,VALID,93.6383,VALID,0,VALID,22.2186,VALID,339,VALID,0.171484,
2010-10-03, 03:45:04,VALID,997.544,VALID,0,VALID,93.6765,VALID,0,VALID,22.2576,VALID,339,VALID,0.249609,
2010-10-03, 03:46:04,VALID,997.544,VALID,0,VALID,93.6612,VALID,0,VALID,22.3161,VALID,339,VALID,0.192578,